Weather History for Barksdale AFB, LA

Change the Weather History Date:

Sunday, September 29, 2013

  Actual Average Record
Temperature  
Mean Temperature 74 °F -  
Max Temperature 77 °F 79 °F 97 °F (2011)
Min Temperature 71 °F 58 °F 48 °F (1996)
Cooling Degree Days 9    
Growing Degree Days 24 (Base 50)    
Moisture  
Dew Point 74 °F    
Average Humidity 96    
Maximum Humidity 100    
Minimum Humidity 89    
Precipitation  
Precipitation 0.60 in - - ()
Sea Level Pressure  
Sea Level Pressure 29.94 in    
Wind  
Wind Speed 5 mph (SW)    
Max Wind Speed 9 mph    
Max Gust Speed -    
Visibility 8 miles    
Events Rain    
Averages and records for this station are not official NWS values.
T = Trace of Precipitation, MM = Missing Value Source: NWS Daily Summary

Daily Weather History Graph

Daily Weather History Graph

Search for Another Location

Airport:

Trip Planner

Search our weather history database for the weather conditions in past years. The results will help you decide how hot, cold, wet, or windy it might be!

Date:

Astronomy

Sep. 29, 2013 Rise Set
Actual Time 7:07 AM CDT 7:01 PM CDT
Civil Twilight 6:43 AM CDT 7:26 PM CDT
Nautical Twilight 6:14 AM CDT 7:54 PM CDT
Astronomical Twilight 5:45 AM CDT 8:23 PM CDT
Moon 2:04 AM CDT (9/29) 3:44 PM CDT (9/29)
Length of Visible Light 12h 43m
Length of Day
11h 54m
Waning Crescent, 27% of the Moon is Illuminated
Sep 29
Waning Crescent
Oct 4
New
Oct 11
First Quarter
Oct 18
Full
Oct 26
Last Quarter

Hourly Weather History & Observations

Time (CDT) Temp. Dew Point Humidity Pressure Visibility Wind Dir Wind Speed Gust Speed Precip Events Conditions
12:03 AM 71.6 °F 71.6 °F 100% 30.01 in 10.0 mi ESE 5.8 mph - N/A   Overcast
12:58 AM 72.5 °F 72.3 °F 99% 30.00 in 10.0 mi SE 8.1 mph - 0.00 in   Mostly Cloudy
1:05 AM 73.4 °F 71.6 °F 94% 29.99 in 10.0 mi SSE 8.1 mph - N/A   Mostly Cloudy
1:25 AM 73.4 °F 71.6 °F 94% 29.99 in 10.0 mi SSE 5.8 mph - N/A   Mostly Cloudy
1:58 AM 72.7 °F 72.5 °F 99% 30.00 in 10.0 mi SSE 6.9 mph - N/A   Mostly Cloudy
2:58 AM 73.0 °F 72.5 °F 98% 29.99 in 10.0 mi South 4.6 mph - N/A   Mostly Cloudy
3:58 AM 73.4 °F 72.5 °F 97% 29.98 in 10.0 mi South 5.8 mph - N/A   Mostly Cloudy
4:58 AM 73.8 °F 73.2 °F 98% 29.96 in 10.0 mi SSE 6.9 mph - N/A   Overcast
5:58 AM 74.3 °F 72.9 °F 95% 29.99 in 10.0 mi SW 2.3 mph - N/A   Overcast
6:28 AM 75.2 °F 73.4 °F 94% 29.98 in 10.0 mi SW 3.5 mph - N/A   Overcast
6:38 AM 75.2 °F 73.4 °F 94% 29.98 in 10.0 mi SW 3.5 mph - N/A   Overcast
6:58 AM 74.3 °F 72.9 °F 95% 29.99 in 10.0 mi SW 3.5 mph - N/A   Overcast
7:26 AM 75.2 °F 73.4 °F 94% 29.98 in 10.0 mi WSW 5.8 mph - N/A Rain Light Rain
7:46 AM 73.4 °F 73.4 °F 100% 29.99 in 2.0 mi West 4.6 mph - N/A Rain Light Rain
7:56 AM 73.4 °F 73.4 °F 100% 29.99 in 8.0 mi WSW 3.5 mph - N/A Rain Light Rain
7:58 AM 74.1 °F 72.9 °F 96% 29.99 in 8.0 mi WSW 4.6 mph - 0.08 in Rain Light Rain
8:28 AM 73.4 °F 73.4 °F 100% 29.99 in 1.5 mi South 5.8 mph - N/A Rain Heavy Rain
8:38 AM 73.4 °F 73.4 °F 100% 29.99 in 3.0 mi South 6.9 mph - N/A Rain Light Rain
8:46 AM 73.4 °F 73.4 °F 100% 29.99 in 9.0 mi SSE 5.8 mph - N/A   Mostly Cloudy
8:58 AM 73.6 °F 72.7 °F 97% 30.00 in 10.0 mi SE 4.6 mph - 0.19 in   Scattered Clouds
9:08 AM 73.4 °F 71.6 °F 94% 29.99 in 10.0 mi SSE 4.6 mph - N/A   Mostly Cloudy
9:15 AM 73.4 °F 71.6 °F 94% 29.99 in 10.0 mi SE 4.6 mph - N/A Rain Light Rain
9:26 AM 73.4 °F 71.6 °F 94% 29.98 in 10.0 mi SE 3.5 mph - N/A   Mostly Cloudy
9:36 AM 73.4 °F 73.4 °F 100% 29.98 in 10.0 mi SSE 6.9 mph - N/A   Mostly Cloudy
9:56 AM 75.2 °F 73.4 °F 94% 29.99 in 10.0 mi South 5.8 mph - N/A   Overcast
9:58 AM 75.2 °F 73.4 °F 94% 30.00 in 10.0 mi South 5.8 mph - 0.01 in   Overcast
10:28 AM 75.2 °F 73.4 °F 94% 29.99 in 10.0 mi South 9.2 mph - N/A   Overcast
10:48 AM 75.2 °F 73.4 °F 94% 29.99 in 10.0 mi South 8.1 mph - N/A   Overcast
10:58 AM 74.8 °F 73.0 °F 94% 30.00 in 10.0 mi South 8.1 mph - N/A   Overcast
11:38 AM 75.2 °F 73.4 °F 94% 29.99 in 10.0 mi South 6.9 mph - N/A   Overcast
11:48 AM 75.2 °F 73.4 °F 94% 29.99 in 10.0 mi SSW 4.6 mph - N/A   Overcast
11:58 AM 75.4 °F 72.9 °F 92% 30.00 in 10.0 mi SSW 6.9 mph - N/A   Overcast
12:38 PM 75.2 °F 73.4 °F 94% 29.98 in 10.0 mi SW 5.8 mph - N/A   Overcast
12:48 PM 75.2 °F 73.4 °F 94% 29.98 in 10.0 mi WSW 5.8 mph - N/A   Overcast
12:58 PM 75.2 °F 73.4 °F 94% 29.98 in 10.0 mi WSW 5.8 mph - N/A   Overcast
1:26 PM 77.0 °F 73.4 °F 89% 29.96 in 8.0 mi SW 5.8 mph - N/A   Light Drizzle
1:36 PM 75.2 °F 73.4 °F 94% 29.96 in 9.0 mi SSW 6.9 mph - N/A   Light Drizzle
1:40 PM 75.2 °F 73.4 °F 94% 29.95 in 10.0 mi SSW 8.1 mph - N/A   Overcast
1:47 PM 75.2 °F 73.4 °F 94% 29.95 in 7.0 mi SSW 9.2 mph - N/A Rain Light Rain
1:52 PM 75.2 °F 73.4 °F 94% 29.95 in 7.0 mi SSW 8.1 mph - N/A   Overcast
1:58 PM 75.2 °F 73.8 °F 95% 29.95 in 8.0 mi SSW 6.9 mph - 0.00 in   Overcast
2:08 PM 75.2 °F 73.4 °F 94% 29.94 in 7.0 mi SSW 5.8 mph - N/A   Overcast
2:10 PM 75.2 °F 73.4 °F 94% 29.94 in 5.0 mi SSW 5.8 mph - N/A Rain Light Rain
2:31 PM 75.2 °F 75.2 °F 100% 29.93 in 7.0 mi SW 5.8 mph - N/A   Overcast
2:33 PM 75.2 °F 75.2 °F 100% 29.93 in 7.0 mi SSW 3.5 mph - N/A Rain Light Rain
2:43 PM 75.2 °F 75.2 °F 100% 29.92 in 8.0 mi SSW 3.5 mph - N/A   Overcast
2:58 PM 75.2 °F 75.2 °F 100% 29.93 in 10.0 mi SSW 3.5 mph - 0.03 in   Overcast
3:02 PM 75.2 °F 75.2 °F 100% 29.92 in 10.0 mi SSW 5.8 mph - N/A   Overcast
3:06 PM 75.2 °F 75.2 °F 100% 29.92 in 7.0 mi SSW 5.8 mph - N/A Rain Light Rain
3:16 PM 77.0 °F 75.2 °F 94% 29.92 in 9.0 mi SSW 5.8 mph - N/A   Overcast
3:26 PM 77.0 °F 75.2 °F 94% 29.91 in 10.0 mi SSW 8.1 mph - N/A   Overcast
3:36 PM 77.0 °F 73.4 °F 89% 29.91 in 10.0 mi SW 6.9 mph - N/A   Overcast
3:58 PM 76.8 °F 74.3 °F 92% 29.92 in 10.0 mi SW 4.6 mph - 0.01 in   Mostly Cloudy
4:18 PM 77.0 °F 73.4 °F 89% 29.90 in 10.0 mi SSW 3.5 mph - N/A   Scattered Clouds
4:38 PM 77.0 °F 73.4 °F 89% 29.90 in 10.0 mi SW 3.5 mph - N/A   Mostly Cloudy
4:42 PM 77.0 °F 73.4 °F 89% 29.90 in 10.0 mi WSW 2.3 mph - N/A Rain Light Rain
4:52 PM 77.0 °F 75.2 °F 94% 29.90 in 7.0 mi WSW 4.6 mph - N/A Rain Light Rain
4:58 PM 77.2 °F 75.0 °F 93% 29.91 in 9.0 mi WNW 5.8 mph - 0.01 in Rain Light Rain
4:59 PM 77.0 °F 75.2 °F 94% 29.90 in 10.0 mi WNW 5.8 mph - N/A   Overcast
5:09 PM 77.0 °F 73.4 °F 89% 29.90 in 10.0 mi West 2.3 mph - N/A   Overcast
5:19 PM 77.0 °F 73.4 °F 89% 29.90 in 10.0 mi SSW 5.8 mph - N/A   Overcast
5:29 PM 77.0 °F 73.4 °F 89% 29.90 in 10.0 mi SSW 5.8 mph - N/A   Overcast
5:41 PM 75.2 °F 73.4 °F 94% 29.90 in 7.0 mi SW 5.8 mph - N/A Rain Light Rain
5:51 PM 75.2 °F 73.4 °F 94% 29.90 in 7.0 mi SW 4.6 mph - N/A Rain Light Rain
5:58 PM 75.9 °F 74.1 °F 94% 29.91 in 10.0 mi SSW 4.6 mph - 0.01 in Rain Light Rain
5:59 PM 75.2 °F 73.4 °F 94% 29.90 in 10.0 mi SSW 4.6 mph - N/A   Overcast
6:13 PM 75.2 °F 73.4 °F 94% 29.90 in 10.0 mi West 4.6 mph - N/A Rain Light Rain
6:23 PM 75.2 °F 73.4 °F 94% 29.90 in 9.0 mi West 4.6 mph - N/A Rain Light Rain
6:33 PM 75.2 °F 73.4 °F 94% 29.90 in 5.0 mi WNW 2.3 mph - N/A Rain Light Rain
6:43 PM 75.2 °F 73.4 °F 94% 29.91 in 2.0 mi WSW 3.5 mph - N/A Rain Light Rain
6:53 PM 75.2 °F 73.4 °F 94% 29.90 in 1.0 mi NW 2.3 mph - N/A Rain Light Rain
6:58 PM 75.2 °F 73.4 °F 94% 29.91 in 1.8 mi NNW 3.5 mph - 0.14 in Rain Light Rain
7:05 PM 75.2 °F 75.2 °F 100% 29.91 in 3.0 mi North 2.3 mph - N/A Rain Light Rain
7:25 PM 75.2 °F 75.2 °F 100% 29.90 in 5.0 mi North 5.8 mph - N/A Rain Light Rain
7:35 PM 75.2 °F 73.4 °F 94% 29.91 in 10.0 mi NNW 4.6 mph - N/A   Light Drizzle
7:41 PM 75.2 °F 75.2 °F 100% 29.91 in 10.0 mi NNW 4.6 mph - N/A   Mostly Cloudy
7:47 PM 75.2 °F 75.2 °F 100% 29.91 in 9.0 mi NW 5.8 mph - N/A Rain Light Rain
7:57 PM 75.2 °F 75.2 °F 100% 29.91 in 8.0 mi WNW 3.5 mph - N/A Rain Light Rain
7:58 PM 74.3 °F 74.3 °F 100% 29.92 in 8.0 mi WNW 3.5 mph - 0.04 in Rain Light Rain
8:00 PM 75.2 °F 75.2 °F 100% 29.91 in 10.0 mi WNW 3.5 mph - N/A   Overcast
8:10 PM 75.2 °F 75.2 °F 100% 29.91 in 10.0 mi WNW 2.3 mph - N/A   Overcast
8:18 PM 75.2 °F 73.4 °F 94% 29.91 in 6.0 mi WNW 1.2 mph - N/A   Light Drizzle
8:28 PM 73.4 °F 73.4 °F 100% 29.92 in 3.0 mi Calm Calm - N/A Rain Light Rain
8:38 PM 73.4 °F 73.4 °F 100% 29.92 in 7.0 mi Calm Calm - N/A   Light Drizzle
8:40 PM 73.4 °F 73.4 °F 100% 29.92 in 8.0 mi Calm Calm - N/A   Overcast
8:51 PM 73.4 °F 73.4 °F 100% 29.92 in 8.0 mi Variable 1.2 mph - N/A Rain Light Rain
8:58 PM 74.1 °F 73.9 °F 99% 29.93 in 7.0 mi South 5.8 mph - 0.02 in Rain Light Rain
9:08 PM 73.4 °F 73.4 °F 100% 29.92 in 5.0 mi SSE 5.8 mph - N/A Rain Light Rain
9:18 PM 73.4 °F 73.4 °F 100% 29.92 in 3.0 mi SSW 3.5 mph - N/A Rain Light Rain
9:20 PM 73.4 °F 73.4 °F 100% 29.92 in 3.0 mi South 2.3 mph - N/A Rain Light Rain
9:40 PM 73.4 °F 73.4 °F 100% 29.92 in 5.0 mi WSW 3.5 mph - N/A Rain Light Rain
9:50 PM 73.4 °F 73.4 °F 100% 29.92 in 9.0 mi West 3.5 mph - N/A Rain Light Rain
9:52 PM 73.4 °F 73.4 °F 100% 29.92 in 10.0 mi West 3.5 mph - N/A   Overcast
9:58 PM 74.1 °F 73.6 °F 98% 29.93 in 10.0 mi WSW 2.3 mph - 0.05 in   Overcast
10:28 PM 75.2 °F 73.4 °F 94% 29.92 in 10.0 mi South 4.6 mph - N/A   Overcast
10:58 PM 74.1 °F 73.4 °F 98% 29.93 in 10.0 mi South 4.6 mph - 0.01 in   Overcast
11:58 PM 73.4 °F 73.4 °F 100% 29.93 in 10.0 mi South 5.8 mph - N/A   Overcast